(7622) Pergolesi = 1978 WQ2 = 6624 P-L

Discovered at Palomar on 1960-09-24 by C. J. van Houten, I. van Houten-Groeneveld, and T. Gehrels.
(7622) Pergolesi = 6624 P-L

Named for the Italian composer Giovanni Battista Pergolesi (1710-1736). He was a conductor in Naples and Rome and died in Pozzuoli in extreme poverty. He did not live to see the glory of his intermezzo La serva pedrona, which especially in France became the beginning of opera buffa. Pergolesi's Stabat mater for soprano, alto, string instruments and organ shows his ability to combine large choral and instrumental components. [Ref: Minor Planet Circ. 30802]

Orbit

Orbit type: Main Belt

Note: WebGL enabled browser required.

epoch2023-09-13.0
epoch JD2460200.5
perihelion date2020-12-21.77751
perihelion JD2459205.27751
argument of perihelion (°)334.69826
ascending node (°)58.73768
inclination (°)3.07214
eccentricity0.0917205
perihelion distance (AU)2.1041801
Tisserand w.r.t. Jupiter3.6
ΔV w.r.t. Earth (km/sec)9.0
semimajor axis (AU)2.3166658
mean anomaly (°)278.18196
mean daily motion (°/day)0.27951740
aphelion distance (AU)2.529
period (years)3.53
P-vector [x]0.83397736
P-vector [y]0.51494009
P-vector [z]0.19828883
Q-vector [x]-0.54989368
Q-vector [y]0.74574925
Q-vector [z]0.37613162
absolute magnitude15.37
phase slope0.15
uncertainty0
referenceMPEC 2024-A48
observations used1835
oppositions22
arc length (days)22940
first opposition used1960
last opposition used2023
residual rms (arc-secs)0.69
perturbers coarse indicatorM-v
perturbers precise indicator003Ek
first observation date used1960-09-24.0
last observation date used2023-07-15.0
computer nameMPCLINUX
JD of orbit computation2456700.365502
perihelion JD uncertainty (days)6.3344E-05
argument of perihelion uncertainty (°)6.2739E-05
ascending node uncertainty (°)5.9979E-05
inclination uncertainty (°)3.6561E-06
eccentricity uncertainty 3.6046E-08
perihelion distance uncertainty (AU)8.3429E-08
Minimum Orbit Intersection Distances (in AU)
for orbit epoch: 2460200.5, reference: E2024-A48
Mercury1.7705
Venus1.38027
Earth1.10988
Mars0.61395
Jupiter2.8065
Saturn6.82911
Uranus15.9803
Neptune27.7327

Observations

1863 total observations over interval: 1960 09 24.32430 – 2023 07 15.962332
These data are available for download (format description).

Date (UT) J2000 RA J2000 Dec Magn Location Ref
1960 09 24.32430 00 00 57.52 -05 20 26.7 18.2   675 – Palomar Mountain MPS 284680
1960 09 24.35000 00 00 55.98 -05 20 33.8 18.4   675 – Palomar Mountain MPS 284680
1960 09 24.35002 00 00 56.02 -05 20 34.3 18.5   675 – Palomar Mountain MPC 9269
1960 09 26.26528 23 59 07.84 -05 29 37.7 18.4   675 – Palomar Mountain MPS 284680
1960 09 26.28541 23 59 06.69 -05 29 43.2 18.2   675 – Palomar Mountain MPS 284680
1960 09 27.30972 23 58 09.12 -05 34 23.7 17.4 V 675 – Palomar Mountain MPS 284680
1960 09 27.34237 23 58 07.20 -05 34 32.8 17.6 V 675 – Palomar Mountain MPS 284680
1960 09 28.31736 23 57 12.85 -05 38 52.6 18.8   675 – Palomar Mountain MPS 284680
1960 09 28.33750 23 57 11.67 -05 38 57.9 18.7   675 – Palomar Mountain MPS 284680
1960 10 17.20209 23 42 32.52 -06 32 15.6 19.4   675 – Palomar Mountain MPS 284680
1960 10 17.22500 23 42 31.70 -06 32 17.6 19.4   675 – Palomar Mountain MPS 284680
1960 10 22.14375 23 40 06.32 -06 34 37.0 19.4   675 – Palomar Mountain MPS 284680
1960 10 22.16324 23 40 05.76 -06 34 36.6   675 – Palomar Mountain MPC 9269
1960 10 22.16667 23 40 05.71 -06 34 37.0 19.4   675 – Palomar Mountain MPS 284680
1960 10 24.23750 23 39 17.60 -06 34 01.0 18.9 V 675 – Palomar Mountain MPS 284680
1960 10 24.26111 23 39 17.07 -06 34 00.3 18.8 V 675 – Palomar Mountain MPS 284680
1960 10 24.28473 23 39 16.48 -06 33 59.6 18.6 V 675 – Palomar Mountain MPS 284680
1960 10 26.25070 23 38 38.70 -06 32 32.5 19.2   675 – Palomar Mountain MPS 284680
1960 10 26.27153 23 38 38.32 -06 32 31.8 19.5   675 – Palomar Mountain MPS 284680
1977 06 12.32396 17 31 29.14 -25 23 41.7   675 – Palomar Mountain MPC 11010
1977 06 13.35104 17 30 20.47 -25 24 17.3   675 – Palomar Mountain MPC 11010
1978 11 29.34653 04 13 01.61 +21 52 37.1 19.5   675 – Palomar Mountain MPC 5076
1978 11 30.34809 04 11 53.82 +21 51 41.5   675 – Palomar Mountain MPC 5076
1992 10 21.41493 03 12 57.88 +16 01 30.9 18.8   675 – Palomar Mountain MPC 29414
1992 10 21.44306 03 12 56.58 +16 01 27.6   675 – Palomar Mountain MPC 29414
1992 11 27.21007 02 37 20.00 +14 41 53.4   675 – Palomar Mountain MPC 29414
1992 11 27.24115 02 37 18.39 +14 41 51.3 18.5   675 – Palomar Mountain MPC 29414
1997 01 13.48942 08 40 25.12 +23 12 41.8 18.2 V 566 – Haleakala-NEAT/GEODSS MPC 28726
1997 01 13.49783 08 40 24.59 +23 12 44.9 18.5 V 566 – Haleakala-NEAT/GEODSS MPC 28726
1997 01 13.56920 08 40 19.95 +23 13 06.3 19.1 V 566 – Haleakala-NEAT/GEODSS MPC 28726
1997 02 04.33499 08 16 35.39 +24 46 03.9 18.9 V 566 – Haleakala-NEAT/GEODSS MPC 28977
1997 02 04.34340 08 16 34.81 +24 46 05.4 19.0 V 566 – Haleakala-NEAT/GEODSS MPC 28977
1997 02 04.35181 08 16 34.13 +24 46 07.2 19.6 V 566 – Haleakala-NEAT/GEODSS MPC 28977
1999 10 01.41890 02 40 18.90 +12 31 45.4 17.7 R 703 – Catalina Sky Survey MPS 7143
1999 10 01.43147 02 40 18.41 +12 31 45.7 17.2 R 703 – Catalina Sky Survey MPS 7143
1999 10 01.44404 02 40 18.13 +12 31 43.3 17.9 R 703 – Catalina Sky Survey MPS 7143
1999 10 01.45669 02 40 17.67 +12 31 42.6 17.9 R 703 – Catalina Sky Survey MPS 7143
1999 10 07.36721 02 36 55.34 +12 20 58.8 18.2   704 – Lincoln Laboratory ETS, New Mexico MPS 7143
1999 10 07.37788 02 36 54.87 +12 20 58.1 19.1   704 – Lincoln Laboratory ETS, New Mexico MPS 7143
1999 10 07.38861 02 36 54.41 +12 20 57.0 18.6   704 – Lincoln Laboratory ETS, New Mexico MPS 7143
1999 10 07.39928 02 36 53.94 +12 20 55.2 18.8   704 – Lincoln Laboratory ETS, New Mexico MPS 7143
1999 10 07.41004 02 36 53.48 +12 20 54.2 18.6   704 – Lincoln Laboratory ETS, New Mexico MPS 7143
1999 10 10.26672 02 34 53.09 +12 14 23.0 17.8   704 – Lincoln Laboratory ETS, New Mexico MPS 7143
1999 10 10.28247 02 34 52.36 +12 14 20.8 18.0   704 – Lincoln Laboratory ETS, New Mexico MPS 7143
1999 10 10.29822 02 34 51.59 +12 14 18.5 18.0   704 – Lincoln Laboratory ETS, New Mexico MPS 7143
1999 10 10.31397 02 34 50.87 +12 14 16.5 18.2   704 – Lincoln Laboratory ETS, New Mexico MPS 7143
1999 10 10.32972 02 34 50.13 +12 14 14.0 18.1   704 – Lincoln Laboratory ETS, New Mexico MPS 7143
1999 10 15.35116 02 30 46.21 +12 01 01.1 15.6   704 – Lincoln Laboratory ETS, New Mexico MPS 7143
1999 10 15.36785 02 30 45.33 +12 00 58.2 15.0   704 – Lincoln Laboratory ETS, New Mexico MPS 7143
1999 10 15.38394 02 30 44.41 +12 00 55.4 15.3   704 – Lincoln Laboratory ETS, New Mexico MPS 7143
1999 10 15.39990 02 30 43.55 +12 00 53.0 15.1   704 – Lincoln Laboratory ETS, New Mexico MPS 7143
1999 10 20.24959 02 26 18.04 +11 46 28.6 17.7   704 – Lincoln Laboratory ETS, New Mexico MPS 7143
1999 10 20.26537 02 26 17.12 +11 46 25.6 17.9   704 – Lincoln Laboratory ETS, New Mexico MPS 7143
1999 10 20.28107 02 26 16.16 +11 46 22.8 18.1   704 – Lincoln Laboratory ETS, New Mexico MPS 7143
1999 10 20.29676 02 26 15.23 +11 46 20.1 17.9   704 – Lincoln Laboratory ETS, New Mexico MPS 7143
1999 10 20.31244 02 26 14.27 +11 46 17.3 18.2   704 – Lincoln Laboratory ETS, New Mexico MPS 7143
1999 10 29.24969 02 17 18.79 +11 17 45.0 17.3 R 703 – Catalina Sky Survey MPS 7649
1999 10 29.26164 02 17 18.02 +11 17 42.9 17.3 R 703 – Catalina Sky Survey MPS 7649
1999 10 29.27366 02 17 17.23 +11 17 40.8 17.3 R 703 – Catalina Sky Survey MPS 7649
1999 10 29.28564 02 17 16.51 +11 17 38.2 17.3 R 703 – Catalina Sky Survey MPS 7649
1999 10 31.18571 02 15 20.04 +11 11 37.0 16.4   732 – Oaxaca MPS 7649
1999 10 31.19020 02 15 19.77 +11 11 36.2 16.4   732 – Oaxaca MPS 7649
1999 10 31.19468 02 15 19.36 +11 11 34.9 18.0   732 – Oaxaca MPS 7649
1999 10 31.20190 02 15 18.94 +11 11 32.3 17.7   732 – Oaxaca MPS 7649
1999 11 01.14508 02 14 21.50 +11 08 34.9 17.6   732 – Oaxaca MPS 7649
1999 11 01.14956 02 14 21.14 +11 08 34.2 17.7   732 – Oaxaca MPS 7649
1999 11 01.15404 02 14 20.86 +11 08 33.2 17.6   732 – Oaxaca MPS 7649
1999 11 03.23860 02 12 14.06 +11 02 05.8 17.5 R 703 – Catalina Sky Survey MPS 7649
1999 11 03.25493 02 12 12.99 +11 02 02.9 17.4 R 703 – Catalina Sky Survey MPS 7649
1999 11 03.27126 02 12 11.92 +11 01 59.5 17.4 R 703 – Catalina Sky Survey MPS 7649
1999 11 03.28761 02 12 10.91 +11 01 56.1 17.1 R 703 – Catalina Sky Survey MPS 7649
1999 11 05.25044 02 10 13.54 +10 56 04.0 17.1   704 – Lincoln Laboratory ETS, New Mexico MPS 7649
1999 11 05.26674 02 10 12.51 +10 56 01.2 17.3   704 – Lincoln Laboratory ETS, New Mexico MPS 7649
1999 11 05.28296 02 10 11.54 +10 55 58.9 17.4   704 – Lincoln Laboratory ETS, New Mexico MPS 7649
1999 11 05.29919 02 10 10.51 +10 55 56.1 17.5   704 – Lincoln Laboratory ETS, New Mexico MPS 7649
1999 11 05.31539 02 10 09.50 +10 55 53.3 18.2   704 – Lincoln Laboratory ETS, New Mexico MPS 7649
1999 11 12.22298 02 03 40.95 +10 37 39.7 17.1   704 – Lincoln Laboratory ETS, New Mexico MPS 7649
1999 11 12.23791 02 03 40.13 +10 37 37.7 17.7   704 – Lincoln Laboratory ETS, New Mexico MPS 7649
1999 11 12.25255 02 03 39.31 +10 37 35.6 17.4   704 – Lincoln Laboratory ETS, New Mexico MPS 7649
1999 11 12.26699 02 03 38.51 +10 37 34.0 17.4   704 – Lincoln Laboratory ETS, New Mexico MPS 7649
1999 11 12.28144 02 03 37.72 +10 37 31.9 17.7   704 – Lincoln Laboratory ETS, New Mexico MPS 7649
1999 11 17.20065 01 59 35.88 +10 27 42.5 17.8   704 – Lincoln Laboratory ETS, New Mexico MPS 7649
1999 11 17.21626 01 59 35.12 +10 27 40.0 18.0   704 – Lincoln Laboratory ETS, New Mexico MPS 7649
1999 11 17.23184 01 59 34.38 +10 27 38.8 18.0   704 – Lincoln Laboratory ETS, New Mexico MPS 7649
1999 11 17.24743 01 59 33.63 +10 27 37.0 17.5   704 – Lincoln Laboratory ETS, New Mexico MPS 7649
1999 11 17.26295 01 59 32.89 +10 27 34.7 18.1   704 – Lincoln Laboratory ETS, New Mexico MPS 7649
1999 12 02.14225 01 51 33.06 +10 19 30.1 17.7 R 699 – Lowell Observatory-LONEOS MPS 8218
